| time (UTC) | temp C | wind direction | speed KPH | gust KPH | rain 1hr cm | rain 24hr cm | rain mn cm | humidity % | barometer mb |
| 20260507140549 | 16 | 0 | 3.2 | 14.5 | 0.00 | 0.00 | 0.00 | 86 | 1017.0 |
| 20260507140051 | 16 | 293 | 6.4 | 14.5 | 0.00 | 0.00 | 0.00 | 86 | 1016.8 |
| 20260507135548 | 16 | 287 | 4.8 | 11.3 | 0.00 | 0.00 | 0.00 | 86 | 1016.8 |
| 20260507135047 | 16 | 298 | 4.8 | 11.3 | 0.00 | 0.00 | 0.00 | 86 | 1016.8 |
| 20260507134552 | 16 | 292 | 3.2 | 8.0 | 0.00 | 0.00 | 0.00 | 86 | 1016.8 |
| 20260507134046 | 16 | 294 | 1.6 | 8.0 | 0.00 | 0.00 | 0.00 | 86 | 1016.8 |
| 20260507133547 | 16 | 0 | 0.0 | 8.0 | 0.00 | 0.00 | 0.00 | 86 | 1016.7 |
| 20260507133053 | 16 | 310 | 0.0 | 8.0 | 0.00 | 0.00 | 0.00 | 86 | 1016.7 |
| 20260507132547 | 16 | 336 | 3.2 | 8.0 | 0.00 | 0.00 | 0.00 | 86 | 1016.7 |
| 20260507132046 | 16 | 309 | 1.6 | 6.4 | 0.00 | 0.00 | 0.00 | 87 | 1016.6 |
| 20260507131600 | 16 | 295 | 1.6 | 9.7 | 0.00 | 0.00 | 0.00 | 87 | 1016.6 |
| 20260507131049 | 16 | 0 | 1.6 | 11.3 | 0.00 | 0.00 | 0.00 | 87 | 1016.7 |
| 20260507130547 | 16 | 0 | 3.2 | 11.3 | 0.00 | 0.00 | 0.00 | 87 | 1016.6 |
| 20260507130058 | 16 | 293 | 1.6 | 6.4 | 0.00 | 0.00 | 0.00 | 87 | 1016.6 |
| 20260507125547 | 16 | 292 | 3.2 | 11.3 | 0.00 | 0.00 | 0.00 | 87 | 1016.6 |
| 20260507125048 | 16 | 290 | 3.2 | 11.3 | 0.00 | 0.00 | 0.00 | 87 | 1016.5 |
| 20260507124602 | 16 | 311 | 1.6 | 6.4 | 0.00 | 0.00 | 0.00 | 87 | 1016.5 |
| 20260507124048 | 16 | 312 | 1.6 | 6.4 | 0.00 | 0.00 | 0.00 | 87 | 1016.5 |
| 20260507123548 | 15 | 310 | 0.0 | 6.4 | 0.00 | 0.00 | 0.00 | 87 | 1016.4 |
| 20260507123053 | 15 | 309 | 1.6 | 6.4 | 0.00 | 0.00 | 0.00 | 87 | 1016.5 |
| 20260507122547 | 15 | 345 | 1.6 | 6.4 | 0.00 | 0.00 | 0.00 | 87 | 1016.3 |
| 20260507122047 | 15 | 304 | 1.6 | 6.4 | 0.00 | 0.00 | 0.00 | 87 | 1016.3 |
| 20260507121553 | 15 | 0 | 0.0 | 6.4 | 0.00 | 0.00 | 0.00 | 87 | 1016.3 |
| 20260507121047 | 15 | 303 | 1.6 | 6.4 | 0.00 | 0.00 | 0.00 | 87 | 1016.3 |
| 20260507120547 | 15 | 306 | 3.2 | 6.4 | 0.00 | 0.00 | 0.00 | 87 | 1016.4 |
| 20260507120054 | 16 | 294 | 3.2 | 8.0 | 0.00 | 0.00 | 0.00 | 87 | 1016.4 |
| 20260507115547 | 16 | 290 | 3.2 | 11.3 | 0.00 | 0.00 | 0.00 | 87 | 1016.3 |
| 20260507115046 | 15 | 286 | 3.2 | 11.3 | 0.00 | 0.00 | 0.00 | 87 | 1016.4 |
| 20260507114605 | 15 | 307 | 4.8 | 11.3 | 0.00 | 0.00 | 0.00 | 87 | 1016.2 |
| 20260507114049 | 16 | 296 | 3.2 | 8.0 | 0.00 | 0.00 | 0.00 | 87 | 1016.2 |
| 20260507113546 | 15 | 295 | 3.2 | 6.4 | 0.00 | 0.00 | 0.00 | 87 | 1016.3 |
| 20260507113125 | 15 | 0 | 1.6 | 6.4 | 0.00 | 0.00 | 0.00 | 87 | 1016.2 |
| 20260507112547 | 15 | 320 | 1.6 | 6.4 | 0.00 | 0.00 | 0.00 | 87 | 1016.2 |
| 20260507112047 | 15 | 317 | 1.6 | 6.4 | 0.00 | 0.00 | 0.00 | 87 | 1016.4 |
| 20260507111553 | 16 | 317 | 1.6 | 8.0 | 0.00 | 0.00 | 0.00 | 87 | 1016.4 |
| 20260507111047 | 16 | 0 | 3.2 | 8.0 | 0.00 | 0.00 | 0.00 | 87 | 1016.4 |
| 20260507110548 | 16 | 307 | 3.2 | 9.7 | 0.00 | 0.00 | 0.00 | 87 | 1016.5 |
| 20260507110052 | 16 | 316 | 3.2 | 9.7 | 0.00 | 0.00 | 0.00 | 87 | 1016.4 |
| 20260507105547 | 16 | 307 | 1.6 | 11.3 | 0.00 | 0.00 | 0.00 | 87 | 1016.4 |
| 20260507105048 | 16 | 288 | 3.2 | 11.3 | 0.00 | 0.00 | 0.00 | 87 | 1016.4 |
| 20260507104552 | 16 | 297 | 3.2 | 8.0 | 0.00 | 0.00 | 0.00 | 87 | 1016.4 |
| 20260507104048 | 16 | 306 | 1.6 | 4.8 | 0.00 | 0.00 | 0.00 | 87 | 1016.6 |
| 20260507103550 | 16 | 309 | 1.6 | 9.7 | 0.00 | 0.00 | 0.00 | 87 | 1016.7 |
| 20260507103053 | 16 | 0 | 0.0 | 9.7 | 0.00 | 0.00 | 0.00 | 87 | 1016.7 |
| 20260507102548 | 16 | 310 | 1.6 | 12.9 | 0.00 | 0.00 | 0.00 | 87 | 1016.6 |
| 20260507102048 | 16 | 290 | 3.2 | 12.9 | 0.00 | 0.00 | 0.00 | 86 | 1016.7 |
| 20260507101550 | 16 | 302 | 3.2 | 12.9 | 0.00 | 0.00 | 0.00 | 87 | 1016.7 |
| 20260507101047 | 16 | 293 | 4.8 | 12.9 | 0.00 | 0.00 | 0.00 | 87 | 1016.8 |
| 20260507100548 | 16 | 296 | 4.8 | 11.3 | 0.00 | 0.00 | 0.00 | 88 | 1016.8 |
| 20260507100056 | 16 | 300 | 1.6 | 8.0 | 0.00 | 0.00 | 0.00 | 87 | 1016.8 |
| 20260507095548 | 16 | 301 | 3.2 | 6.4 | 0.00 | 0.00 | 0.00 | 88 | 1016.8 |
| 20260507095049 | 16 | 308 | 3.2 | 6.4 | 0.00 | 0.00 | 0.00 | 88 | 1016.8 |
| 20260507094602 | 16 | 307 | 3.2 | 6.4 | 0.00 | 0.00 | 0.00 | 88 | 1016.8 |
| 20260507094052 | 16 | 298 | 1.6 | 4.8 | 0.00 | 0.00 | 0.00 | 88 | 1016.9 |
| 20260507093548 | 16 | 296 | 1.6 | 4.8 | 0.00 | 0.00 | 0.00 | 88 | 1017.0 |
| 20260507093055 | 16 | 0 | 0.0 | 8.0 | 0.00 | 0.00 | 0.00 | 88 | 1017.1 |
| 20260507092548 | 16 | 294 | 3.2 | 11.3 | 0.00 | 0.00 | 0.00 | 88 | 1017.1 |
| 20260507092048 | 16 | 295 | 4.8 | 11.3 | 0.00 | 0.00 | 0.00 | 88 | 1017.0 |
| 20260507091635 | 16 | 298 | 3.2 | 9.7 | 0.00 | 0.00 | 0.00 | 88 | 1017.1 |
| 20260507091049 | 16 | 290 | 3.2 | 8.0 | 0.00 | 0.00 | 0.00 | 89 | 1017.1 |
| 20260507090548 | 16 | 295 | 3.2 | 8.0 | 0.00 | 0.00 | 0.00 | 88 | 1017.2 |
| 20260507090053 | 16 | 303 | 3.2 | 6.4 | 0.00 | 0.00 | 0.00 | 88 | 1017.2 |
| 20260507085549 | 16 | 291 | 1.6 | 4.8 | 0.00 | 0.00 | 0.00 | 88 | 1017.3 |
| 20260507085048 | 16 | 0 | 0.0 | 3.2 | 0.00 | 0.00 | 0.00 | 88 | 1017.3 |
| 20260507084604 | 16 | 0 | 0.0 | 3.2 | 0.00 | 0.00 | 0.00 | 88 | 1017.4 |
| 20260507084047 | 16 | 0 | 0.0 | 6.4 | 0.00 | 0.00 | 0.00 | 88 | 1017.5 |
| 20260507083551 | 16 | 291 | 1.6 | 6.4 | 0.00 | 0.00 | 0.00 | 88 | 1017.5 |
| 20260507083053 | 16 | 290 | 0.0 | 6.4 | 0.00 | 0.00 | 0.00 | 88 | 1017.6 |
| 20260507082548 | 16 | 290 | 1.6 | 6.4 | 0.00 | 0.00 | 0.00 | 88 | 1017.6 |
| 20260507082048 | 16 | 300 | 0.0 | 6.4 | 0.00 | 0.00 | 0.00 | 88 | 1017.7 |
| 20260507081558 | 16 | 300 | 1.6 | 6.4 | 0.00 | 0.00 | 0.00 | 88 | 1017.8 |
| 20260507081050 | 16 | 301 | 1.6 | 6.4 | 0.00 | 0.00 | 0.00 | 88 | 1017.8 |
| 20260507080549 | 16 | 0 | 0.0 | 4.8 | 0.00 | 0.00 | 0.00 | 88 | 1017.8 |
| 20260507080055 | 16 | 300 | 1.6 | 4.8 | 0.00 | 0.00 | 0.00 | 88 | 1017.8 |
| 20260507075552 | 16 | 300 | 0.0 | 4.8 | 0.00 | 0.00 | 0.00 | 88 | 1017.8 |
| 20260507075048 | 16 | 0 | 1.6 | 4.8 | 0.00 | 0.00 | 0.00 | 88 | 1017.8 |
| 20260507074558 | 16 | 298 | 0.0 | 6.4 | 0.00 | 0.00 | 0.00 | 88 | 1017.9 |
| 20260507074054 | 16 | 298 | 3.2 | 6.4 | 0.00 | 0.00 | 0.00 | 88 | 1017.9 |
| 20260507073548 | 16 | 298 | 1.6 | 6.4 | 0.00 | 0.00 | 0.00 | 88 | 1017.8 |
| 20260507073057 | 16 | 0 | 1.6 | 4.8 | 0.00 | 0.00 | 0.00 | 88 | 1017.8 |
| 20260507072548 | 16 | 304 | 0.0 | 6.4 | 0.00 | 0.00 | 0.00 | 88 | 1017.8 |
| 20260507072050 | 16 | 304 | 1.6 | 6.4 | 0.00 | 0.00 | 0.00 | 88 | 1017.9 |
| 20260507071550 | 16 | 301 | 1.6 | 4.8 | 0.00 | 0.00 | 0.00 | 88 | 1017.8 |
| 20260507071048 | 16 | 301 | 0.0 | 4.8 | 0.00 | 0.00 | 0.00 | 88 | 1018.0 |
| 20260507070548 | 16 | 0 | 1.6 | 4.8 | 0.00 | 0.00 | 0.00 | 88 | 1017.9 |
| 20260507070054 | 16 | 301 | 0.0 | 4.8 | 0.00 | 0.00 | 0.00 | 88 | 1018.0 |
| 20260507065547 | 16 | 301 | 1.6 | 4.8 | 0.00 | 0.00 | 0.00 | 88 | 1018.0 |
| 20260507065049 | 16 | 0 | 1.6 | 4.8 | 0.00 | 0.00 | 0.00 | 88 | 1018.0 |
| 20260507064554 | 16 | 0 | 1.6 | 4.8 | 0.00 | 0.00 | 0.00 | 88 | 1018.1 |
| 20260507064048 | 16 | 300 | 1.6 | 4.8 | 0.00 | 0.00 | 0.00 | 87 | 1018.1 |
| 20260507063549 | 16 | 294 | 1.6 | 6.4 | 0.00 | 0.00 | 0.00 | 87 | 1018.1 |
| 20260507063056 | 16 | 294 | 1.6 | 6.4 | 0.00 | 0.00 | 0.00 | 87 | 1018.1 |
| 20260507062548 | 16 | 294 | 0.0 | 6.4 | 0.00 | 0.00 | 0.00 | 87 | 1018.1 |
| 20260507062048 | 16 | 292 | 3.2 | 6.4 | 0.00 | 0.00 | 0.00 | 87 | 1018.2 |
| 20260507061552 | 16 | 292 | 3.2 | 9.7 | 0.00 | 0.00 | 0.00 | 87 | 1018.2 |
| 20260507061052 | 16 | 292 | 1.6 | 9.7 | 0.00 | 0.00 | 0.00 | 87 | 1018.2 |
| 20260507060550 | 16 | 286 | 4.8 | 9.7 | 0.00 | 0.00 | 0.00 | 87 | 1018.1 |
| 20260507060059 | 16 | 288 | 0.0 | 9.7 | 0.00 | 0.00 | 0.00 | 87 | 1018.2 |
| 20260507055548 | 16 | 287 | 3.2 | 6.4 | 0.00 | 0.00 | 0.00 | 87 | 1018.1 |
| 20260507055048 | 16 | 298 | 3.2 | 6.4 | 0.00 | 0.00 | 0.00 | 87 | 1018.2 |
| 20260507054554 | 16 | 0 | 1.6 | 6.4 | 0.00 | 0.00 | 0.00 | 87 | 1018.2 |
| 20260507054052 | 16 | 319 | 3.2 | 11.3 | 0.00 | 0.00 | 0.00 | 87 | 1018.2 |
| 20260507053548 | 16 | 298 | 3.2 | 12.9 | 0.00 | 0.00 | 0.00 | 87 | 1018.1 |
| 20260507053052 | 16 | 284 | 6.4 | 12.9 | 0.00 | 0.00 | 0.00 | 87 | 1018.2 |
| 20260507052548 | 16 | 292 | 4.8 | 8.0 | 0.00 | 0.00 | 0.00 | 87 | 1018.2 |
| 20260507052047 | 16 | 316 | 3.2 | 11.3 | 0.00 | 0.00 | 0.00 | 87 | 1018.2 |
| 20260507051552 | 16 | 0 | 4.8 | 11.3 | 0.00 | 0.00 | 0.00 | 87 | 1018.2 |
| 20260507051050 | 16 | 298 | 3.2 | 11.3 | 0.00 | 0.00 | 0.00 | 87 | 1018.2 |
| 20260507050550 | 16 | 309 | 4.8 | 11.3 | 0.00 | 0.00 | 0.00 | 87 | 1018.1 |
| 20260507050058 | 16 | 288 | 3.2 | 12.9 | 0.00 | 0.00 | 0.00 | 87 | 1018.1 |
| 20260507045548 | 16 | 310 | 4.8 | 12.9 | 0.00 | 0.00 | 0.00 | 87 | 1018.0 |
| 20260507045048 | 16 | 290 | 4.8 | 14.5 | 0.00 | 0.00 | 0.00 | 87 | 1018.0 |
| 20260507044606 | 16 | 316 | 4.8 | 14.5 | 0.00 | 0.00 | 0.00 | 87 | 1018.0 |
| 20260507044048 | 16 | 301 | 9.7 | 16.1 | 0.00 | 0.00 | 0.00 | 87 | 1018.0 |
| 20260507043548 | 16 | 292 | 6.4 | 16.1 | 0.00 | 0.00 | 0.00 | 87 | 1018.0 |
| 20260507043104 | 16 | 296 | 6.4 | 16.1 | 0.00 | 0.00 | 0.00 | 87 | 1018.0 |
| 20260507042547 | 16 | 300 | 6.4 | 12.9 | 0.00 | 0.00 | 0.00 | 87 | 1018.0 |
| 20260507042050 | 16 | 310 | 6.4 | 12.9 | 0.00 | 0.00 | 0.00 | 87 | 1017.9 |
| 20260507041557 | 16 | 296 | 6.4 | 12.9 | 0.00 | 0.00 | 0.00 | 87 | 1017.9 |
| 20260507041048 | 16 | 294 | 6.4 | 12.9 | 0.00 | 0.00 | 0.00 | 87 | 1017.9 |
| 20260507040551 | 16 | 314 | 8.0 | 14.5 | 0.00 | 0.00 | 0.00 | 87 | 1017.9 |
| 20260507040058 | 16 | 293 | 8.0 | 16.1 | 0.00 | 0.00 | 0.00 | 87 | 1017.9 |
| 20260507035550 | 16 | 295 | 9.7 | 16.1 | 0.00 | 0.00 | 0.00 | 87 | 1017.7 |
| 20260507035050 | 16 | 332 | 9.7 | 16.1 | 0.00 | 0.00 | 0.00 | 87 | 1017.6 |
| 20260507034554 | 16 | 291 | 8.0 | 16.1 | 0.00 | 0.00 | 0.00 | 87 | 1017.7 |
| 20260507034048 | 16 | 296 | 9.7 | 16.1 | 0.00 | 0.00 | 0.00 | 87 | 1017.7 |
| 20260507033548 | 16 | 302 | 8.0 | 14.5 | 0.00 | 0.00 | 0.00 | 87 | 1017.6 |
| 20260507033056 | 16 | 300 | 6.4 | 16.1 | 0.00 | 0.00 | 0.00 | 86 | 1017.5 |
| 20260507032552 | 16 | 290 | 9.7 | 16.1 | 0.00 | 0.00 | 0.00 | 86 | 1017.6 |
| 20260507032047 | 16 | 294 | 9.7 | 17.7 | 0.00 | 0.00 | 0.00 | 86 | 1017.5 |
| 20260507031558 | 16 | 329 | 8.0 | 17.7 | 0.00 | 0.00 | 0.00 | 86 | 1017.4 |
| 20260507031048 | 16 | 305 | 9.7 | 17.7 | 0.00 | 0.00 | 0.00 | 86 | 1017.3 |
| 20260507030551 | 16 | 327 | 9.7 | 16.1 | 0.00 | 0.00 | 0.00 | 86 | 1017.3 |
| 20260507030052 | 16 | 296 | 9.7 | 17.7 | 0.00 | 0.00 | 0.00 | 87 | 1017.3 |
| 20260507025550 | 16 | 311 | 11.3 | 17.7 | 0.00 | 0.00 | 0.00 | 86 | 1017.2 |
| 20260507025050 | 16 | 297 | 11.3 | 17.7 | 0.00 | 0.00 | 0.00 | 87 | 1017.2 |
| 20260507024556 | 16 | 286 | 8.0 | 19.3 | 0.00 | 0.00 | 0.00 | 87 | 1017.1 |
| 20260507024048 | 16 | 313 | 11.3 | 19.3 | 0.00 | 0.00 | 0.00 | 87 | 1017.0 |
| 20260507023548 | 16 | 282 | 11.3 | 19.3 | 0.00 | 0.00 | 0.00 | 86 | 1017.0 |
| 20260507023104 | 16 | 297 | 12.9 | 19.3 | 0.00 | 0.00 | 0.00 | 87 | 1017.1 |
| 20260507022549 | 16 | 304 | 14.5 | 19.3 | 0.00 | 0.00 | 0.00 | 87 | 1017.1 |
| 20260507022048 | 17 | 287 | 12.9 | 19.3 | 0.00 | 0.00 | 0.00 | 87 | 1017.1 |
| 20260507021557 | 16 | 291 | 12.9 | 19.3 | 0.00 | 0.00 | 0.00 | 86 | 1017.1 |
| 20260507021047 | 16 | 302 | 12.9 | 19.3 | 0.00 | 0.00 | 0.00 | 86 | 1017.0 |
| 20260507020548 | 17 | 288 | 11.3 | 20.9 | 0.00 | 0.00 | 0.00 | 86 | 1017.0 |
| 20260507015547 | 17 | 302 | 14.5 | 20.9 | 0.00 | 0.00 | 0.00 | 86 | 1016.9 |
| 20260507015048 | 17 | 294 | 12.9 | 20.9 | 0.00 | 0.00 | 0.00 | 86 | 1017.0 |
| 20260507014557 | 17 | 284 | 14.5 | 20.9 | 0.00 | 0.00 | 0.00 | 86 | 1016.8 |
| 20260507014047 | 17 | 333 | 12.9 | 19.3 | 0.00 | 0.00 | 0.00 | 86 | 1016.9 |
| 20260507013548 | 17 | 292 | 14.5 | 19.3 | 0.00 | 0.00 | 0.00 | 86 | 1016.9 |
| 20260507013051 | 17 | 292 | 12.9 | 19.3 | 0.00 | 0.00 | 0.00 | 86 | 1016.9 |
| 20260507012549 | 17 | 306 | 14.5 | 20.9 | 0.00 | 0.00 | 0.00 | 86 | 1016.9 |
| 20260507012048 | 17 | 293 | 14.5 | 20.9 | 0.00 | 0.00 | 0.00 | 85 | 1016.8 |
| 20260507011552 | 17 | 306 | 12.9 | 19.3 | 0.00 | 0.00 | 0.00 | 85 | 1016.9 |
| 20260507011047 | 17 | 297 | 12.9 | 19.3 | 0.00 | 0.00 | 0.00 | 85 | 1016.9 |
| 20260507010549 | 17 | 298 | 14.5 | 19.3 | 0.00 | 0.00 | 0.00 | 85 | 1016.9 |
| 20260507010054 | 17 | 299 | 14.5 | 17.7 | 0.00 | 0.00 | 0.00 | 85 | 1016.9 |
| 20260507005548 | 17 | 300 | 14.5 | 19.3 | 0.00 | 0.00 | 0.00 | 85 | 1017.0 |
| 20260507005049 | 17 | 298 | 14.5 | 19.3 | 0.00 | 0.00 | 0.00 | 85 | 1016.8 |
| 20260507004551 | 17 | 292 | 14.5 | 20.9 | 0.00 | 0.00 | 0.00 | 84 | 1016.8 |
| 20260507004047 | 17 | 298 | 14.5 | 20.9 | 0.00 | 0.00 | 0.00 | 85 | 1016.9 |
| 20260507003548 | 17 | 284 | 14.5 | 20.9 | 0.00 | 0.00 | 0.00 | 84 | 1016.8 |
| 20260507003114 | 17 | 295 | 14.5 | 19.3 | 0.00 | 0.00 | 0.00 | 84 | 1016.8 |
| 20260507002548 | 17 | 304 | 14.5 | 19.3 | 0.00 | 0.00 | 0.00 | 84 | 1016.8 |
| 20260507002048 | 17 | 295 | 14.5 | 20.9 | 0.00 | 0.00 | 0.00 | 84 | 1016.7 |
| 20260507001611 | 17 | 298 | 16.1 | 22.5 | 0.00 | 0.00 | 0.00 | 83 | 1016.7 |
| 20260507001046 | 17 | 296 | 16.1 | 22.5 | 0.00 | 0.00 | 0.00 | 83 | 1016.7 |
| 20260507000552 | 17 | 298 | 14.5 | 22.5 | 0.00 | 0.00 | 0.00 | 83 | 1016.7 |
| 20260507000052 | 17 | 303 | 16.1 | 20.9 | 0.00 | 0.00 | 0.00 | 84 | 1016.6 |
| 20260506235551 | 17 | 292 | 16.1 | 20.9 | 0.00 | 0.00 | 0.00 | 84 | 1016.6 |
| 20260506235047 | 17 | 329 | 14.5 | 20.9 | 0.00 | 0.00 | 0.00 | 84 | 1016.6 |
| 20260506234556 | 17 | 284 | 16.1 | 20.9 | 0.00 | 0.00 | 0.00 | 83 | 1016.7 |
| 20260506234051 | 17 | 292 | 14.5 | 22.5 | 0.00 | 0.00 | 0.00 | 83 | 1016.7 |
| 20260506233548 | 17 | 275 | 16.1 | 22.5 | 0.00 | 0.00 | 0.00 | 83 | 1016.7 |
| 20260506233055 | 17 | 296 | 17.7 | 22.5 | 0.00 | 0.00 | 0.00 | 82 | 1016.7 |
| 20260506232547 | 17 | 285 | 12.9 | 20.9 | 0.00 | 0.00 | 0.00 | 83 | 1016.7 |
| 20260506232048 | 17 | 290 | 12.9 | 22.5 | 0.00 | 0.00 | 0.00 | 83 | 1016.7 |
| 20260506231605 | 17 | 294 | 16.1 | 24.1 | 0.00 | 0.00 | 0.00 | 83 | 1016.7 |
| 20260506231048 | 17 | 297 | 16.1 | 24.1 | 0.00 | 0.00 | 0.00 | 82 | 1016.8 |
| 20260506230547 | 17 | 288 | 14.5 | 24.1 | 0.00 | 0.00 | 0.00 | 82 | 1016.8 |
| 20260506230106 | 17 | 290 | 16.1 | 20.9 | 0.00 | 0.00 | 0.00 | 83 | 1016.8 |
| 20260506225552 | 17 | 296 | 16.1 | 20.9 | 0.00 | 0.00 | 0.00 | 83 | 1016.8 |
| 20260506225047 | 17 | 290 | 16.1 | 20.9 | 0.00 | 0.00 | 0.00 | 82 | 1016.8 |
| 20260506224552 | 17 | 269 | 16.1 | 20.9 | 0.00 | 0.00 | 0.00 | 81 | 1017.0 |
| 20260506224047 | 17 | 279 | 9.7 | 20.9 | 0.00 | 0.00 | 0.00 | 81 | 1017.0 |
| 20260506223551 | 17 | 312 | 14.5 | 20.9 | 0.00 | 0.00 | 0.00 | 82 | 1017.0 |
| 20260506223055 | 17 | 313 | 12.9 | 19.3 | 0.00 | 0.00 | 0.00 | 82 | 1017.1 |
| 20260506222547 | 17 | 290 | 12.9 | 19.3 | 0.00 | 0.00 | 0.00 | 82 | 1017.1 |
| 20260506222048 | 17 | 296 | 14.5 | 20.9 | 0.00 | 0.00 | 0.00 | 81 | 1017.3 |
| 20260506221605 | 17 | 267 | 12.9 | 22.5 | 0.00 | 0.00 | 0.00 | 81 | 1017.3 |
| 20260506221048 | 17 | 261 | 14.5 | 22.5 | 0.00 | 0.00 | 0.00 | 80 | 1017.3 |
| 20260506220548 | 17 | 300 | 14.5 | 19.3 | 0.00 | 0.00 | 0.00 | 81 | 1017.4 |
| 20260506220055 | 17 | 286 | 11.3 | 20.9 | 0.00 | 0.00 | 0.00 | 81 | 1017.4 |
| 20260506215548 | 17 | 304 | 14.5 | 20.9 | 0.00 | 0.00 | 0.00 | 80 | 1017.5 |
| 20260506215051 | 17 | 286 | 14.5 | 20.9 | 0.00 | 0.00 | 0.00 | 80 | 1017.5 |
| 20260506214555 | 17 | 299 | 12.9 | 20.9 | 0.00 | 0.00 | 0.00 | 79 | 1017.4 |
| 20260506214046 | 17 | 271 | 9.7 | 20.9 | 0.00 | 0.00 | 0.00 | 80 | 1017.5 |
| 20260506213546 | 17 | 279 | 12.9 | 20.9 | 0.00 | 0.00 | 0.00 | 80 | 1017.5 |
| 20260506213050 | 17 | 263 | 11.3 | 20.9 | 0.00 | 0.00 | 0.00 | 80 | 1017.6 |
| 20260506212548 | 17 | 303 | 12.9 | 22.5 | 0.00 | 0.00 | 0.00 | 80 | 1017.6 |
| 20260506212048 | 17 | 284 | 14.5 | 22.5 | 0.00 | 0.00 | 0.00 | 80 | 1017.6 |
| 20260506211554 | 17 | 250 | 14.5 | 22.5 | 0.00 | 0.00 | 0.00 | 81 | 1017.7 |
| 20260506211048 | 17 | 269 | 14.5 | 25.7 | 0.00 | 0.00 | 0.00 | 81 | 1017.7 |
| 20260506210547 | 17 | 271 | 14.5 | 25.7 | 0.00 | 0.00 | 0.00 | 81 | 1017.7 |
| 20260506210058 | 16 | 263 | 19.3 | 25.7 | 0.00 | 0.00 | 0.00 | 80 | 1017.7 |
| 20260506205551 | 16 | 291 | 17.7 | 24.1 | 0.00 | 0.00 | 0.00 | 80 | 1017.7 |
| 20260506205048 | 17 | 271 | 14.5 | 25.7 | 0.00 | 0.00 | 0.00 | 80 | 1017.7 |
| 20260506204556 | 17 | 273 | 12.9 | 25.7 | 0.00 | 0.00 | 0.00 | 80 | 1017.7 |
| 20260506204049 | 17 | 277 | 17.7 | 25.7 | 0.00 | 0.00 | 0.00 | 80 | 1017.8 |
| 20260506203548 | 17 | 265 | 14.5 | 25.7 | 0.00 | 0.00 | 0.00 | 80 | 1017.8 |
| 20260506203116 | 17 | 278 | 16.1 | 25.7 | 0.00 | 0.00 | 0.00 | 80 | 1017.8 |
| 20260506202548 | 17 | 316 | 12.9 | 25.7 | 0.00 | 0.00 | 0.00 | 80 | 1017.8 |
| 20260506202047 | 17 | 265 | 16.1 | 25.7 | 0.00 | 0.00 | 0.00 | 81 | 1017.8 |
| 20260506201553 | 17 | 274 | 17.7 | 24.1 | 0.00 | 0.00 | 0.00 | 80 | 1017.9 |
| 20260506201049 | 16 | 262 | 16.1 | 24.1 | 0.00 | 0.00 | 0.00 | 79 | 1018.0 |
| 20260506200554 | 17 | 263 | 12.9 | 22.5 | 0.00 | 0.00 | 0.00 | 80 | 1018.1 |
| 20260506200058 | 16 | 309 | 12.9 | 22.5 | 0.00 | 0.00 | 0.00 | 79 | 1018.1 |
| 20260506195547 | 17 | 269 | 12.9 | 22.5 | 0.00 | 0.00 | 0.00 | 79 | 1018.1 |
| 20260506195047 | 16 | 282 | 14.5 | 22.5 | 0.00 | 0.00 | 0.00 | 79 | 1018.1 |
| 20260506194600 | 16 | 259 | 12.9 | 22.5 | 0.00 | 0.00 | 0.00 | 78 | 1018.2 |
| 20260506194046 | 16 | 296 | 11.3 | 22.5 | 0.00 | 0.00 | 0.00 | 79 | 1018.3 |
| 20260506193547 | 16 | 320 | 14.5 | 22.5 | 0.00 | 0.00 | 0.00 | 80 | 1018.4 |
| 20260506193106 | 16 | 270 | 12.9 | 22.5 | 0.00 | 0.00 | 0.00 | 79 | 1018.2 |
| 20260506192547 | 17 | 275 | 12.9 | 17.7 | 0.00 | 0.00 | 0.00 | 79 | 1018.3 |
| 20260506192048 | 17 | 294 | 9.7 | 17.7 | 0.00 | 0.00 | 0.00 | 79 | 1018.4 |
| 20260506191559 | 17 | 286 | 8.0 | 16.1 | 0.00 | 0.00 | 0.00 | 78 | 1018.4 |
| 20260506191048 | 16 | 307 | 9.7 | 20.9 | 0.00 | 0.00 | 0.00 | 78 | 1018.5 |
| 20260506190547 | 16 | 294 | 8.0 | 20.9 | 0.00 | 0.00 | 0.00 | 79 | 1018.4 |
| 20260506190058 | 16 | 272 | 11.3 | 17.7 | 0.00 | 0.00 | 0.00 | 79 | 1018.5 |
| 20260506185547 | 16 | 288 | 12.9 | 17.7 | 0.00 | 0.00 | 0.00 | 78 | 1018.6 |
| 20260506185047 | 16 | 285 | 8.0 | 14.5 | 0.00 | 0.00 | 0.00 | 78 | 1018.6 |
| 20260506184600 | 16 | 274 | 8.0 | 14.5 | 0.00 | 0.00 | 0.00 | 77 | 1018.6 |
| 20260506184047 | 17 | 281 | 8.0 | 14.5 | 0.00 | 0.00 | 0.00 | 78 | 1018.6 |
| 20260506183549 | 17 | 273 | 9.7 | 14.5 | 0.00 | 0.00 | 0.00 | 77 | 1018.6 |
| 20260506183105 | 17 | 262 | 4.8 | 12.9 | 0.00 | 0.00 | 0.00 | 76 | 1018.5 |
| 20260506182547 | 17 | 261 | 6.4 | 12.9 | 0.00 | 0.00 | 0.00 | 76 | 1018.6 |
| 20260506182048 | 17 | 272 | 4.8 | 9.7 | 0.00 | 0.00 | 0.00 | 75 | 1018.7 |
| 20260506181558 | 17 | 263 | 3.2 | 11.3 | 0.00 | 0.00 | 0.00 | 77 | 1018.7 |
| 20260506181048 | 17 | 293 | 3.2 | 11.3 | 0.00 | 0.00 | 0.00 | 77 | 1018.7 |
| 20260506180550 | 16 | 261 | 6.4 | 11.3 | 0.00 | 0.00 | 0.00 | 76 | 1018.7 |
| 20260506180053 | 16 | 272 | 6.4 | 11.3 | 0.00 | 0.00 | 0.00 | 76 | 1018.8 |
| 20260506175549 | 17 | 276 | 3.2 | 11.3 | 0.00 | 0.00 | 0.00 | 77 | 1018.7 |
| 20260506175052 | 16 | 275 | 4.8 | 11.3 | 0.00 | 0.00 | 0.00 | 78 | 1018.7 |
| 20260506174552 | 16 | 274 | 6.4 | 11.3 | 0.00 | 0.00 | 0.00 | 77 | 1018.8 |
| 20260506174048 | 16 | 261 | 6.4 | 11.3 | 0.00 | 0.00 | 0.00 | 77 | 1018.8 |
| 20260506173547 | 16 | 264 | 4.8 | 11.3 | 0.00 | 0.00 | 0.00 | 77 | 1018.8 |
| 20260506173106 | 16 | 265 | 6.4 | 9.7 | 0.00 | 0.00 | 0.00 | 76 | 1018.8 |
| 20260506172549 | 16 | 267 | 4.8 | 9.7 | 0.00 | 0.00 | 0.00 | 75 | 1019.0 |
| 20260506172048 | 17 | 265 | 1.6 | 11.3 | 0.00 | 0.00 | 0.00 | 76 | 1019.0 |
| 20260506171551 | 16 | 273 | 4.8 | 11.3 | 0.00 | 0.00 | 0.00 | 76 | 1019.0 |
| 20260506171047 | 17 | 268 | 6.4 | 11.3 | 0.00 | 0.00 | 0.00 | 74 | 1019.0 |
| 20260506170549 | 17 | 235 | 1.6 | 6.4 | 0.00 | 0.00 | 0.00 | 76 | 1018.9 |
| 20260506170104 | 17 | 216 | 3.2 | 8.0 | 0.00 | 0.00 | 0.00 | 76 | 1018.9 |
| 20260506165549 | 17 | 232 | 1.6 | 8.0 | 0.00 | 0.00 | 0.00 | 76 | 1018.8 |
| 20260506165048 | 17 | 225 | 4.8 | 8.0 | 0.00 | 0.00 | 0.00 | 75 | 1018.9 |
| 20260506164611 | 17 | 225 | 3.2 | 6.4 | 0.00 | 0.00 | 0.00 | 75 | 1018.8 |
| 20260506164048 | 17 | 278 | 0.0 | 6.4 | 0.00 | 0.00 | 0.00 | 77 | 1018.8 |
| 20260506163548 | 16 | 279 | 1.6 | 6.4 | 0.00 | 0.00 | 0.00 | 77 | 1018.9 |
| 20260506163101 | 16 | 0 | 1.6 | 6.4 | 0.00 | 0.00 | 0.00 | 77 | 1018.9 |
| 20260506162549 | 16 | 274 | 3.2 | 6.4 | 0.00 | 0.00 | 0.00 | 76 | 1018.9 |
| 20260506162048 | 16 | 283 | 0.0 | 4.8 | 0.00 | 0.00 | 0.00 | 76 | 1018.9 |
| 20260506161557 | 16 | 283 | 1.6 | 4.8 | 0.00 | 0.00 | 0.00 | 76 | 1018.8 |
| 20260506161050 | 16 | 283 | 1.6 | 4.8 | 0.00 | 0.00 | 0.00 | 76 | 1018.8 |
| 20260506160547 | 16 | 283 | 1.6 | 4.8 | 0.00 | 0.00 | 0.00 | 76 | 1018.8 |
| 20260506160111 | 16 | 283 | 0.0 | 4.8 | 0.00 | 0.00 | 0.00 | 76 | 1018.8 |
| 20260506155550 | 16 | 0 | 1.6 | 6.4 | 0.00 | 0.00 | 0.00 | 75 | 1018.8 |
| 20260506155048 | 16 | 283 | 3.2 | 6.4 | 0.00 | 0.00 | 0.00 | 74 | 1018.7 |
| 20260506154556 | 16 | 267 | 3.2 | 6.4 | 0.00 | 0.00 | 0.00 | 72 | 1018.7 |
| 20260506154049 | 17 | 100 | 1.6 | 4.8 | 0.00 | 0.00 | 0.00 | 71 | 1018.7 |
| 20260506153553 | 17 | 0 | 0.0 | 4.8 | 0.00 | 0.00 | 0.00 | 73 | 1018.6 |
| 20260506153050 | 17 | 0 | 0.0 | 4.8 | 0.00 | 0.00 | 0.00 | 72 | 1018.8 |
| 20260506152549 | 17 | 0 | 0.0 | 9.7 | 0.00 | 0.00 | 0.00 | 74 | 1018.8 |
| 20260506152050 | 16 | 0 | 1.6 | 9.7 | 0.00 | 0.00 | 0.00 | 74 | 1018.8 |
| 20260506151556 | 16 | 120 | 1.6 | 9.7 | 0.00 | 0.00 | 0.00 | 74 | 1018.7 |
| 20260506151048 | 16 | 79 | 3.2 | 9.7 | 0.00 | 0.00 | 0.00 | 74 | 1018.7 |
| 20260506150549 | 16 | 0 | 1.6 | 9.7 | 0.00 | 0.00 | 0.00 | 75 | 1018.7 |
| 20260506145549 | 16 | 84 | 3.2 | 12.9 | 0.00 | 0.03 | 0.00 | 76 | 1018.7 |
| 20260506145050 | 16 | 116 | 6.4 | 12.9 | 0.00 | 0.03 | 0.00 | 76 | 1018.7 |
| 20260506144553 | 15 | 117 | 6.4 | 12.9 | 0.00 | 0.03 | 0.00 | 76 | 1018.7 |
| 20260506144048 | 15 | 90 | 4.8 | 12.9 | 0.00 | 0.03 | 0.00 | 77 | 1018.7 |
| 20260506143549 | 15 | 88 | 6.4 | 12.9 | 0.00 | 0.03 | 0.00 | 77 | 1018.6 |
| 20260506143053 | 15 | 78 | 6.4 | 12.9 | 0.00 | 0.03 | 0.00 | 77 | 1018.6 |
| 20260506142550 | 15 | 111 | 4.8 | 11.3 | 0.00 | 0.03 | 0.00 | 78 | 1018.6 |
| 20260506142048 | 15 | 96 | 4.8 | 11.3 | 0.00 | 0.03 | 0.00 | 79 | 1018.6 |
| 20260506141555 | 14 | 80 | 4.8 | 11.3 | 0.00 | 0.03 | 0.00 | 79 | 1018.6 |
| 20260506141049 | 14 | 77 | 4.8 | 11.3 | 0.00 | 0.03 | 0.00 | 79 | 1018.5 |